This is the latest recevied weather packets stored in our database for station/object VE3GIF. If no packets are shown the sender has not sent any weather packets the latest 10 day(s).
| Time | Temp. | Humidity | Pressure | Rain* | Wind** | Luminosity | Snow |
|---|---|---|---|---|---|---|---|
| 1777970481 | 16.11° C | 73% | 997.8 hPa | 0 mm | - | - | - |
| 1777970181 | 16.11° C | 73% | 997.8 hPa | 0 mm | - | - | - |
| 1777969881 | 16.11° C | 73% | 997.8 hPa | 0 mm | - | - | - |
| 1777969580 | 16.11° C | 73% | 997.9 hPa | 0 mm | - | - | - |
| 1777969280 | 16.67° C | 73% | 997.9 hPa | 0 mm | - | - | - |
| 1777968980 | 16.67° C | 72% | 998.1 hPa | 0 mm | - | - | - |
| 1777968680 | 16.67° C | 72% | 998.2 hPa | 0 mm | - | - | - |
| 1777968379 | 16.67° C | 72% | 998.2 hPa | 0 mm | - | - | - |
| 1777968079 | 16.67° C | 72% | 998.2 hPa | 0 mm | - | - | - |
| 1777967779 | 16.67° C | 73% | 998.2 hPa | 0 mm | - | - | - |
| 1777967478 | 16.67° C | 73% | 998.3 hPa | 0 mm | - | - | - |
| 1777967178 | 16.11° C | 73% | 998.3 hPa | 0 mm | - | - | - |
| 1777966878 | 16.11° C | 73% | 998.3 hPa | 0 mm | - | - | - |
| 1777966578 | 16.11° C | 74% | 998.3 hPa | 0 mm | - | - | - |
| 1777966277 | 16.11° C | 74% | 998.1 hPa | 0 mm | - | - | - |
| 1777965977 | 15.56° C | 73% | 998 hPa | 0 mm | - | - | - |
| 1777965677 | 15.56° C | 74% | 998 hPa | 0 mm | - | - | - |
| 1777965076 | 15.56° C | 74% | 998 hPa | 0 mm | - | - | - |
| 1777964776 | 15.56° C | 74% | 998.1 hPa | 0 mm | - | - | - |
| 1777964476 | 15.56° C | 73% | 998.1 hPa | 0 mm | - | - | - |
| 1777964175 | 15° C | 73% | 998.2 hPa | 0 mm | - | - | - |
| 1777963875 | 15° C | 73% | 998.3 hPa | 0 mm | - | - | - |
| 1777963274 | 15° C | 73% | 998.4 hPa | 0 mm | - | - | - |
| 1777962974 | 15° C | 73% | 998.4 hPa | 0 mm | - | - | - |
| 1777962674 | 15.56° C | 73% | 998.4 hPa | 0 mm | - | - | - |
* Rain latest hour (hover to see other rain measurements)
** Current wind speed in m/s (hover to see current wind gust speed)